PUNCH-WFI-3

导读

PUNCH-WFI03是美国发射的PUNCH任务卫星星座中的第三颗宽视场成像卫星,于2025年3月12日发射升空。该卫星属于NASA的太阳物理学项目,配备宽场成像仪,与同星座卫星协同工作,持续对日冕物质抛射等太阳活动进行观测,帮助科学家研究太阳风与日冕结构,提升空间天气预报能力,推动太阳物理领域的研究进展。

基本信息
目录编号:
63180
目录名称:
PUNCH-WFI03
国际标识:
2025-047C
轨道中心:
EARTH
卫星名称:
PUNCH-WFI03
卫星全名:
PUNCH-WFI-3
卫星状态:
在轨 (已飞行542 天)
发射日期:
2025-03-12 UTC
国别 :
美国 (US)
星等 :
--
轨道信息
数据来源 国际轨道数据
星历时间: 2026-09-05T02:03:50+0800
14小时前
查看轨道信息
半长轴: 7025.128km
偏心率: 0.0008646
轨道倾角: 97.957°
近地点辐角 274.068°
升交点赤经 71.344°
平近点角 85.954°
近地点: 640.917km
远地点: 653.065km
周期: 97.665分钟
每日圈数: 14.744208
详细信息
使用方式:
暂无
2D轨道图
3D轨道图
轨道高度分析图
轨道倾角分析图
轨道综合分析图
查看轨道综合分析图
交会数据列表
事件ID 空间交会对象 最接近时刻(TCA) 交会距离 交会风险概率(CRP) 交会风险指数(CRI) 操作
CDM_260907-054606-116106-318022
2026-09-07T
05:46:14+0000
2.290 km
极远距离
2.100129E-6 低风险 0.41